Vertical_Velocity
5 3 -9 -19 3 10 12 -0 1 2 -8 -0 -0 -11 0 -3 -1 3 -2 -2 2 2 -3 -1 0 -3 -2 -2 0 -1 -1 0 -2 7 -3 4 -1 -1 -3 -2 -8 -4 -8 1
2 -13 -14 14 7 1 4 0 -13 2 -4 3 -0 -5 1 -2 -0 -2 2 -4 1 -0 1 -2 0 -1 -2 -2 -2 -3 -4 -6 4 6 1 5 5 1 -4 -3 -1 -4 -10 -3
3 3 5 1 -0 2 -5 1 -1 3 13 -1 -4 -20 -4 -7 4 -1 -2 -0 -3 3 1 -1 -2 -1 -1 -0 -3 -2 -4 -4 -3 0 4 7 11 5 -0 -3 -5 -7 -4 9
1 1 -1 4 -1 8 3 -1 5 -4 11 -2 -10 -12 12 -9 2 0 1 -5 -1 3 1 -1 -3 -1 -1 0 -3 -2 -3 -2 -4 3 2 -6 -3 -5 0 3 0 -4 -1 2
-0 1 -6 -1 -4 6 -22 7 3 2 1 15 -7 17 -18 -2 -2 -2 2 -4 -1 2 1 0 -5 -1 -1 -1 -2 -2 -2 -2 1 -3 2 5 -3 -1 2 1 -0 -2 -1 -3
-2 3 2 -5 1 3 4 2 1 1 1 10 -17 13 -16 9 -4 1 -2 6 -1 -3 2 1 -5 -1 -0 -2 -1 -1 -3 -4 -2 -1 1 -3 -1 -1 -5 4 2 2 4 0
9 -11 -2 -3 1 3 6 7 3 9 10 -7 0 12 -29 2 -3 -1 3 6 -3 -4 -0 1 -9 2 0 -2 -2 -1 -1 -2 1 2 -1 2 -1 0 2 2 3 7 7 1
2 9 4 4 -12 -2 -8 -3 -1 -2 1 -4 4 -3 -32 -4 0 3 -2 7 1 1 -2 0 -9 -1 2 -2 -4 -4 -2 -0 -3 -3 -2 -1 0 -3 -2 2 -4 -0 -4 -2
2 -3 -2 -5 13 8 -10 8 -12 11 0 7 -5 -5 -27 -10 -2 0 -2 -2 -0 3 -0 -0 -5 -3 -1 0 -1 -2 -4 -1 -4 -3 -2 -3 -2 -3 -2 -7 -6 -4 -2 0
4 -1 -1 2 2 2 13 22 8 5 2 0 -3 -4 -4 -4 -2 4 3 3 -2 2 -1 -1 -3 -5 -3 -1 1 -3 -5 -1 -2 -4 -1 -1 -0 -0 -1 -2 -2 -5 -2 -3
-1 1 5 3 -7 -8 -1 -2 -2 12 1 2 0 -8 -15 -4 4 3 1 1 -2 0 -0 7 -1 -3 -0 -4 -2 1 -4 -3 -1 -1 0 -0 -2 -2 -2 -2 -2 -2 1 3
-2 -2 -3 -8 7 4 8 7 1 14 -7 -6 3 -34 -3 -3 1 -4 6 4 2 5 4 8 5 3 -3 -3 -4 1 -6 -3 -1 -2 -2 0 1 -1 -2 -1 -1 1 1 1
-0 7 3 -2 1 -4 1 -4 -2 2 8 -13 12 -4 -7 2 9 2 3 2 2 4 13 2 -1 4 3 -2 -5 -3 0 -0 -3 -2 -1 -1 -1 -4 -2 -4 4 2 3 2
-2 1 -3 -2 3 2 -5 -4 11 6 12 -13 -19 -9 3 -12 -4 8 1 4 4 3 2 6 1 4 10 6 1 -2 0 -1 2 2 -0 -2 -2 -0 5 6 3 3 6 1
1 -2 3 -4 -17 5 4 -3 -4 -4 -5 12 -13 2 -11 -8 6 -3 1 -3 4 3 -1 5 14 6 1 -1 0 3 -3 -2 -1 0 1 3 5 -1 3 1 1 2 5 5
-1 -0 -1 -9 -4 -3 -5 -3 5 1 -2 12 9 -11 11 11 7 -1 -1 1 -6 2 -1 1 5 10 5 3 -6 4 4 -7 -11 -8 0 1 -2 -1 -0 -5 -2 -1 3 4
-1 -0 0 -7 14 4 -4 14 -3 -1 0 4 -0 -14 7 -5 -9 -2 -6 5 -7 -5 -7 -8 3 9 14 9 1 -3 3 1 5 -2 -6 -4 -2 -0 1 -0 -4 -1 0 4
-7 -1 4 -7 -3 7 7 -5 -5 -4 3 -3 4 -7 4 0 5 7 8 -14 -1 3 -10 -2 6 -21 4 21 11 5 3 1 0 -0 0 -3 -3 -2 -1 0 0 -1 -1 1
-2 4 3 -2 4 -9 -4 -38 10 17 3 4 6 5 5 9 -0 -4 -6 -3 -4 -6 -3 -10 -10 4 7 8 11 12 10 3 4 5 0 0 -2 -5 0 -2 -1 -2 -0 -0
10 3 11 10 4 1 -4 2 -24 9 8 4 12 8 -1 -1 2 15 5 4 2 -3 3 -1 -21 13 -20 -15 22 8 13 13 6 9 4 5 -2 -2 0 2 1 0 -1 -0
-0 10 -8 -1 2 -7 16 6 -2 10 10 -1 -9 9 3 2 0 -2 6 4 0 -1 4 3 5 -1 6 7 10 11 3 2 5 11 8 1 -1 -2 -1 1 0 1 0 -1
-4 -4 -4 5 9 -1 5 1 3 -11 24 7 -3 13 5 -4 -1 2 -1 3 -1 1 -2 -4 1 1 4 8 5 12 -10 4 6 -2 11 6 3 3 3 -3 -2 -1 1 1
8 -9 -5 6 8 8 -11 -18 3 2 10 4 -1 -2 -5 -1 1 -0 1 1 -4 0 -1 -1 1 5 1 5 5 8 9 14 6 3 5 8 1 1 -1 1 -0 -2 -1 2
-1 2 2 1 12 2 -22 -2 5 3 4 6 -3 -1 0 1 -0 -2 2 -5 -6 -4 -2 -7 10 -6 4 6 -1 6 3 4 3 4 6 5 3 4 2 3 4 1 -0 3
13 2 5 -3 -0 5 33 0 5 6 -2 -2 6 -3 0 -0 -3 -1 -1 1 5 -3 -5 -8 -1 -0 6 -3 -1 7 8 9 15 13 6 13 3 4 2 9 -3 4 4 2
7 1 -2 13 -2 -0 3 -3 -5 -2 -6 -2 2 -5 0 -1 -0 -5 3 0 5 1 -0 -14 -12 1 -5 4 4 6 8 1 6 11 1 1 8 3 7 -7 10 2 7 1
Height
3066 3067 3066 3073 3073 3077 3081 3079 3079 3079 3079 3078 3078 3077 3075 3076 3074 3073 3073 3074 3073 3072 3070 3068 3068 3067 3065 3063 3061 3060 3061 3062 3065 3067 3070 3072 3075 3076 3080 3083 3087 3092 3100 3110
3060 3055 3065 3068 3071 3071 3074 3074 3073 3075 3076 3075 3073 3072 3070 3070 3070 3069 3069 3069 3069 3068 3066 3065 3064 3064 3063 3061 3059 3056 3058 3062 3064 3067 3070 3073 3074 3076 3078 3082 3087 3093 3101 3110
3051 3054 3056 3061 3061 3065 3066 3068 3067 3071 3072 3071 3068 3065 3061 3063 3063 3063 3063 3065 3065 3064 3063 3062 3062 3062 3061 3060 3058 3055 3058 3060 3062 3066 3068 3071 3074 3077 3079 3082 3087 3092 3100 3107
3046 3047 3052 3054 3054 3060 3059 3063 3064 3066 3068 3064 3063 3057 3055 3057 3058 3057 3057 3059 3061 3061 3060 3060 3060 3060 3059 3058 3057 3055 3056 3059 3061 3063 3066 3068 3071 3075 3079 3083 3087 3093 3098 3105
3041 3041 3045 3046 3048 3055 3054 3059 3060 3060 3059 3059 3059 3059 3050 3051 3051 3051 3053 3053 3055 3056 3056 3057 3057 3057 3056 3056 3057 3056 3055 3056 3058 3061 3064 3066 3069 3074 3078 3081 3086 3091 3096 3103
3036 3039 3039 3041 3046 3050 3053 3054 3055 3055 3055 3051 3051 3052 3042 3045 3046 3047 3048 3049 3050 3051 3052 3053 3055 3054 3054 3055 3055 3055 3054 3055 3056 3059 3061 3064 3068 3071 3074 3079 3084 3089 3094 3100
3033 3033 3036 3038 3042 3045 3048 3051 3047 3048 3047 3042 3043 3045 3039 3041 3042 3042 3045 3045 3045 3045 3047 3049 3051 3052 3052 3054 3054 3055 3055 3055 3055 3056 3059 3063 3066 3069 3073 3078 3082 3088 3092 3095
3025 3026 3026 3028 3033 3041 3042 3044 3039 3035 3034 3034 3037 3035 3034 3035 3037 3039 3039 3041 3041 3041 3041 3044 3048 3050 3050 3052 3053 3054 3055 3055 3056 3057 3058 3061 3065 3068 3072 3076 3080 3085 3088 3094
3022 3022 3021 3023 3027 3035 3038 3036 3041 3039 3038 3040 3032 3030 3031 3030 3032 3035 3036 3035 3035 3037 3037 3040 3043 3046 3048 3049 3052 3053 3054 3055 3057 3058 3059 3061 3063 3066 3069 3073 3077 3082 3087 3092
3022 3022 3021 3022 3025 3029 3030 3036 3037 3036 3033 3029 3022 3026 3026 3027 3029 3032 3032 3030 3030 3031 3033 3035 3039 3042 3045 3046 3049 3051 3053 3055 3056 3058 3060 3062 3064 3066 3069 3071 3074 3078 3083 3088
3019 3021 3021 3020 3021 3023 3026 3027 3029 3028 3028 3022 3020 3019 3022 3024 3027 3029 3028 3025 3025 3026 3028 3032 3035 3038 3041 3043 3045 3048 3051 3052 3054 3056 3058 3061 3063 3066 3068 3071 3074 3077 3080 3083
3018 3018 3017 3018 3019 3019 3021 3022 3024 3023 3021 3023 3023 3019 3020 3021 3022 3024 3025 3023 3022 3022 3025 3029 3032 3034 3036 3039 3042 3045 3048 3050 3052 3055 3057 3060 3062 3064 3067 3070 3073 3076 3078 3081
3016 3014 3013 3012 3015 3016 3016 3018 3019 3020 3022 3013 3016 3015 3015 3020 3021 3021 3023 3023 3022 3022 3024 3027 3029 3030 3033 3035 3037 3041 3044 3047 3049 3051 3054 3057 3059 3062 3065 3068 3070 3071 3074 3077
3012 3013 3013 3010 3010 3013 3014 3013 3014 3016 3013 3013 3006 3014 3015 3017 3018 3019 3020 3020 3021 3020 3021 3023 3025 3026 3028 3031 3033 3036 3039 3042 3045 3047 3049 3051 3054 3056 3059 3062 3063 3064 3066 3068
3009 3009 3010 3010 3009 3008 3009 3007 3008 3005 3002 3004 3005 3006 3010 3012 3013 3015 3016 3016 3017 3018 3018 3020 3022 3024 3025 3027 3029 3031 3034 3037 3040 3041 3043 3046 3049 3051 3054 3055 3057 3059 3059 3060
3004 3005 3004 3002 3004 3005 3001 2999 2999 2999 3000 2998 3001 3000 3005 3006 3008 3009 3011 3011 3012 3014 3016 3016 3018 3021 3022 3023 3024 3026 3028 3030 3034 3037 3039 3041 3043 3045 3047 3049 3050 3052 3055 3056
3000 3001 3000 2997 2999 3000 2996 2993 2990 2989 2991 2993 2994 2997 3001 3001 3002 3003 3004 3005 3005 3008 3010 3011 3012 3015 3018 3020 3021 3023 3025 3027 3028 3030 3033 3036 3038 3039 3041 3042 3043 3045 3047 3049
2994 2998 2999 2997 2998 2992 2983 2981 2981 2979 2982 2987 2989 2992 2994 2995 2996 2997 2996 2996 2997 2999 3003 3006 3007 3009 3009 3014 3017 3018 3020 3022 3024 3026 3027 3030 3032 3033 3035 3036 3038 3038 3039 3040
2987 2994 2996 2995 2989 2984 2979 2977 2974 2975 2977 2980 2982 2986 2988 2988 2987 2987 2986 2986 2988 2989 2992 2996 3000 3000 3002 3006 3009 3011 3014 3016 3018 3019 3021 3024 3025 3027 3028 3029 3030 3031 3032 3033
2984 2988 2993 2991 2985 2979 2978 2974 2973 2971 2973 2974 2977 2979 2979 2980 2980 2982 2978 2980 2982 2983 2984 2987 2991 2994 2995 2998 2999 3003 3006 3008 3011 3013 3014 3016 3017 3019 3020 3021 3022 3023 3024 3025
2977 2982 2983 2986 2983 2979 2976 2973 2973 2971 2974 2970 2971 2975 2975 2975 2976 2975 2975 2974 2973 2974 2975 2977 2981 2984 2986 2989 2991 2994 2997 2999 3001 3004 3006 3007 3009 3011 3012 3013 3014 3015 3015 3015
2972 2976 2977 2981 2978 2977 2971 2971 2973 2969 2966 2969 2966 2968 2970 2971 2971 2969 2967 2967 2967 2967 2968 2969 2971 2974 2977 2979 2980 2984 2987 2989 2991 2994 2996 2997 2999 3001 3003 3004 3005 3005 3005 3005
2972 2969 2967 2971 2972 2970 2967 2971 2971 2971 2968 2967 2967 2967 2967 2968 2967 2965 2963 2960 2958 2960 2960 2961 2963 2967 2968 2969 2971 2975 2978 2980 2981 2983 2986 2988 2990 2992 2993 2994 2995 2996 2996 2996
2966 2966 2967 2968 2967 2966 2967 2968 2968 2968 2967 2967 2966 2965 2966 2965 2964 2961 2959 2956 2954 2954 2955 2958 2958 2961 2962 2962 2965 2966 2967 2969 2972 2974 2977 2979 2980 2982 2984 2985 2985 2986 2986 2986
2965 2964 2965 2965 2965 2965 2969 2964 2963 2964 2965 2964 2963 2963 2962 2962 2961 2958 2957 2956 2953 2949 2950 2953 2952 2953 2955 2956 2959 2961 2961 2963 2965 2966 2969 2970 2972 2973 2974 2975 2976 2976 2976 2977
2961 2961 2963 2963 2962 2963 2962 2959 2959 2959 2960 2961 2960 2960 2959 2958 2958 2957 2956 2954 2952 2951 2949 2948 2950 2951 2952 2954 2956 2958 2959 2960 2962 2961 2963 2964 2964 2964 2965 2966 2966 2967 2966 2966